When you browse on this site, cookies collect data to enhance your experience and personalize the content and advertising you see.
Visit our Privacy Policy to learn more. By continuing to use the site, you agree to this use of cookies and data.
  • In United Kingdom
  • List of Countries
  • For 7 days
  • Water Temperature
  • Satellite Maps
  • Weather Map
  • Weather Widgets
  • user-avatar
    Login

    Hourly Weather Miskolc

    Today, 20 June, Thursday

    Time Temperature Precipitation Wind Pressure Humidity
    00:00 +19°C° 0.7 mm 0 mps 746 mmHg 84%
    01:00 +18°C° 0.7 mm 0 mps 746 mmHg 86%
    02:00 +18°C° 0.4 mm 0 mps 745 mmHg 87%
    03:00 +18°C° 0.4 mm 0 mps 745 mmHg 88%
    04:00 +18°C° 0.4 mm 0 mps 745 mmHg 89%
    05:00 +21°C° 0.6 mm 1 mps 746 mmHg 88%
    06:00 +22°C° 0.6 mm 1 mps 746 mmHg 87%
    07:00 +23°C° 0.6 mm 1 mps 746 mmHg 86%
    08:00 +25°C° 0.4 mm 2 mps 746 mmHg 83%
    09:00 +26°C° 0.4 mm 2 mps 746 mmHg 79%
    10:00 +27°C° 0.4 mm 3 mps 746 mmHg 75%
    11:00 +27°C° 1.3 mm 3 mps 746 mmHg 74%
    12:00 +28°C° 1.3 mm 3 mps 746 mmHg 72%
    13:00 +28°C° 1.3 mm 4 mps 746 mmHg 71%
    14:00 +28°C° 0.5 mm 3 mps 745 mmHg 70%
    15:00 +28°C° 0.5 mm 2 mps 745 mmHg 70%
    16:00 +28°C° 0.5 mm 2 mps 745 mmHg 69%
    17:00 +27°C° 0.7 mm 1 mps 745 mmHg 73%
    18:00 +26°C° 0.7 mm 1 mps 745 mmHg 77%
    19:00 +25°C° 0.7 mm 1 mps 745 mmHg 81%
    20:00 +22°C° 0.2 mm 0 mps 745 mmHg 83%
    21:00 +21°C° 0.2 mm 0 mps 745 mmHg 85%
    22:00 +20°C° 0.2 mm 0 mps 746 mmHg 87%
    23:00 +20°C° 0.1 mm 0 mps 746 mmHg 87%

    Tomorrow, 21 June, Friday

    Time Temperature Precipitation Wind Pressure Humidity
    00:00 +19°C° 0.1 mm 0 mps 746 mmHg 88%
    01:00 +19°C° 0.1 mm 0 mps 746 mmHg 89%
    02:00 +19°C° 0.3 mm 0 mps 746 mmHg 89%
    03:00 +18°C° 0.3 mm 0 mps 746 mmHg 90%
    04:00 +18°C° 0.3 mm 0 mps 746 mmHg 91%
    05:00 +19°C° 0 mm 0 mps 746 mmHg 89%
    06:00 +23°C° 0 mm 1 mps 747 mmHg 87%
    07:00 +24°C° 0 mm 1 mps 747 mmHg 85%
    08:00 +25°C° 0.6 mm 1 mps 747 mmHg 82%
    09:00 +26°C° 0.6 mm 1 mps 747 mmHg 79%
    10:00 +27°C° 0.6 mm 1 mps 747 mmHg 76%
    11:00 +28°C° 0.9 mm 1 mps 747 mmHg 70%
    12:00 +29°C° 0.9 mm 1 mps 747 mmHg 64%
    13:00 +30°C° 0.9 mm 1 mps 747 mmHg 59%
    14:00 +30°C° 0.2 mm 2 mps 747 mmHg 61%
    15:00 +30°C° 0.2 mm 2 mps 746 mmHg 62%
    16:00 +30°C° 0.2 mm 2 mps 746 mmHg 64%
    17:00 +28°C° 0.2 mm 2 mps 746 mmHg 70%
    18:00 +27°C° 0.2 mm 1 mps 746 mmHg 75%
    19:00 +25°C° 0.2 mm 1 mps 746 mmHg 81%
    20:00 +24°C° 0.1 mm 1 mps 747 mmHg 82%
    21:00 +23°C° 0.1 mm 1 mps 747 mmHg 84%
    22:00 +22°C° 0.1 mm 1 mps 747 mmHg 86%
    23:00 +20°C° 0 mm 2 mps 747 mmHg 87%

    Day after tomorrow, 22 June, Saturday

    Time Temperature Precipitation Wind Pressure Humidity
    00:00 +20°C° 0 mm 2 mps 747 mmHg 87%
    01:00 +19°C° 0 mm 2 mps 748 mmHg 88%
    02:00 +19°C° 0.1 mm 2 mps 747 mmHg 88%
    03:00 +19°C° 0.1 mm 2 mps 747 mmHg 88%
    04:00 +19°C° 0.1 mm 2 mps 747 mmHg 89%
    05:00 +20°C° 0 mm 2 mps 748 mmHg 85%
    06:00 +21°C° 0 mm 2 mps 748 mmHg 82%
    07:00 +24°C° 0 mm 2 mps 748 mmHg 79%
    08:00 +25°C° 0 mm 3 mps 748 mmHg 75%
    09:00 +26°C° 0 mm 3 mps 748 mmHg 70%
    10:00 +28°C° 0 mm 3 mps 748 mmHg 66%
    11:00 +28°C° 0.1 mm 3 mps 748 mmHg 64%
    12:00 +29°C° 0.1 mm 3 mps 748 mmHg 63%
    13:00 +29°C° 0.1 mm 2 mps 748 mmHg 62%
    14:00 +29°C° 0.9 mm 2 mps 748 mmHg 67%
    15:00 +28°C° 0.9 mm 2 mps 747 mmHg 72%
    16:00 +27°C° 0.9 mm 2 mps 747 mmHg 78%
    17:00 +26°C° 0.6 mm 3 mps 747 mmHg 81%
    18:00 +25°C° 0.6 mm 3 mps 747 mmHg 84%
    19:00 +24°C° 0.6 mm 3 mps 747 mmHg 87%
    20:00 +22°C° 0.1 mm 3 mps 747 mmHg 89%
    21:00 +21°C° 0.1 mm 3 mps 747 mmHg 90%
    22:00 +20°C° 0.1 mm 3 mps 747 mmHg 91%
    23:00 +20°C° 0.3 mm 3 mps 747 mmHg 92%

    23 June, Sunday

    Time Temperature Precipitation Wind Pressure Humidity
    00:00 +19°C° 0.3 mm 3 mps 747 mmHg 93%
    01:00 +19°C° 0.3 mm 3 mps 747 mmHg 94%
    02:00 +19°C° 0.1 mm 3 mps 747 mmHg 94%
    03:00 +19°C° 0.1 mm 3 mps 746 mmHg 94%
    04:00 +18°C° 0.1 mm 3 mps 746 mmHg 94%
    05:00 +20°C° 0 mm 3 mps 746 mmHg 92%
    06:00 +21°C° 0 mm 4 mps 747 mmHg 89%
    07:00 +22°C° 0 mm 4 mps 747 mmHg 86%
    08:00 +23°C° 0.1 mm 4 mps 747 mmHg 82%
    09:00 +25°C° 0.1 mm 5 mps 747 mmHg 78%
    10:00 +26°C° 0.1 mm 5 mps 747 mmHg 74%
    11:00 +27°C° 0.2 mm 6 mps 747 mmHg 72%
    12:00 +27°C° 0.2 mm 6 mps 747 mmHg 70%
    13:00 +28°C° 0.2 mm 6 mps 747 mmHg 68%
    14:00 +27°C° 0.3 mm 6 mps 747 mmHg 70%
    15:00 +27°C° 0.3 mm 6 mps 747 mmHg 72%
    16:00 +26°C° 0.3 mm 6 mps 747 mmHg 74%
    17:00 +24°C° 0.1 mm 6 mps 747 mmHg 76%
    18:00 +23°C° 0.1 mm 6 mps 747 mmHg 79%
    19:00 +22°C° 0.1 mm 6 mps 748 mmHg 81%
    20:00 +21°C° 0.1 mm 5 mps 748 mmHg 81%
    21:00 +20°C° 0.1 mm 5 mps 748 mmHg 82%
    22:00 +20°C° 0.1 mm 5 mps 749 mmHg 83%
    23:00 +20°C° 0 mm 5 mps 749 mmHg 84%

    24 June, Monday

    Time Temperature Precipitation Wind Pressure Humidity
    00:00 +19°C° 0 mm 4 mps 749 mmHg 85%
    01:00 +19°C° 0 mm 4 mps 749 mmHg 86%
    02:00 +19°C° 0 mm 4 mps 749 mmHg 87%
    03:00 +19°C° 0 mm 4 mps 749 mmHg 87%
    04:00 +18°C° 0 mm 4 mps 749 mmHg 87%
    05:00 +20°C° 0 mm 4 mps 749 mmHg 84%
    06:00 +21°C° 0 mm 4 mps 750 mmHg 80%
    07:00 +23°C° 0 mm 4 mps 750 mmHg 76%
    08:00 +25°C° 0 mm 4 mps 750 mmHg 73%
    09:00 +26°C° 0 mm 4 mps 750 mmHg 70%
    10:00 +28°C° 0 mm 5 mps 750 mmHg 67%
    11:00 +28°C° 0 mm 5 mps 750 mmHg 65%
    12:00 +29°C° 0 mm 5 mps 750 mmHg 64%
    13:00 +29°C° 0 mm 5 mps 750 mmHg 63%
    14:00 +29°C° 0.1 mm 5 mps 750 mmHg 65%
    15:00 +28°C° 0.1 mm 5 mps 750 mmHg 67%
    16:00 +28°C° 0.1 mm 6 mps 750 mmHg 70%
    17:00 +27°C° 0 mm 6 mps 750 mmHg 74%
    18:00 +25°C° 0 mm 5 mps 750 mmHg 78%
    19:00 +23°C° 0 mm 5 mps 750 mmHg 82%
    20:00 +22°C° 0 mm 5 mps 750 mmHg 82%
    21:00 +22°C° 0 mm 5 mps 751 mmHg 83%
    22:00 +21°C° 0 mm 5 mps 751 mmHg 83%
    23:00 +21°C° 0 mm 5 mps 751 mmHg 84%

    25 June, Tuesday

    Time Temperature Precipitation Wind Pressure Humidity
    00:00 +21°C° 0 mm 5 mps 751 mmHg 85%
    01:00 +21°C° 0 mm 5 mps 751 mmHg 86%
    02:00 +20°C° 0 mm 4 mps 751 mmHg 86%
    03:00 +20°C° 0 mm 4 mps 751 mmHg 87%
    04:00 +20°C° 0 mm 4 mps 751 mmHg 87%
    05:00 +21°C° 0 mm 4 mps 751 mmHg 84%
    06:00 +22°C° 0 mm 5 mps 751 mmHg 81%
    07:00 +23°C° 0 mm 5 mps 752 mmHg 78%
    08:00 +26°C° 0 mm 5 mps 752 mmHg 74%
    09:00 +27°C° 0 mm 5 mps 752 mmHg 71%
    10:00 +28°C° 0 mm 5 mps 752 mmHg 68%
    11:00 +29°C° 0 mm 5 mps 752 mmHg 66%
    12:00 +30°C° 0 mm 5 mps 752 mmHg 64%
    13:00 +30°C° 0 mm 5 mps 751 mmHg 63%
    14:00 +30°C° 0 mm 5 mps 751 mmHg 64%
    15:00 +30°C° 0 mm 5 mps 751 mmHg 65%
    16:00 +30°C° 0 mm 5 mps 751 mmHg 66%
    17:00 +28°C° 0 mm 4 mps 751 mmHg 71%
    18:00 +27°C° 0 mm 4 mps 751 mmHg 76%
    19:00 +26°C° 0 mm 4 mps 751 mmHg 81%
    20:00 +25°C° 0 mm 4 mps 751 mmHg 82%
    21:00 +23°C° 0 mm 4 mps 752 mmHg 84%
    22:00 +22°C° 0 mm 3 mps 752 mmHg 85%
    23:00 +22°C° 0 mm 3 mps 752 mmHg 86%
    Show more